LB418 LPEV-LPSO

Flight info

Callsign LB418
Flight time 0h 32m
Altitude 2500
Route DCT BACEL DCT ARRAI DCT MNHAO DCT GALVE DCT
Aircraft SIRA/L-YDFS/S

Departure

Time 2026-05-09 13:23
Airport Évora Airfield (LPEV)

Arrival

Time 2026-05-09 13:56
Airport Aeródromo Municipal de Ponte de Sor (LPSO)
Time Latitude Longitude Altitude Speed Heading
2026-05-09 12:55 38.53210 -7.88838 814 ft 0 kts
2026-05-09 13:11 38.53211 -7.88838 814 ft 0 kts
2026-05-09 13:12 38.53219 -7.88860 814 ft 6 kts 265°
2026-05-09 13:12 38.53247 -7.88877 814 ft 8 kts
2026-05-09 13:12 38.53250 -7.88877 814 ft 0 kts
2026-05-09 13:12 38.53265 -7.88875 814 ft 6 kts
2026-05-09 13:13 38.53282 -7.88876 814 ft 0 kts 36°
2026-05-09 13:18 38.53290 -7.88873 814 ft 5 kts
2026-05-09 13:18 38.53336 -7.88928 814 ft 13 kts 302°
2026-05-09 13:19 38.53402 -7.88965 814 ft 16 kts
2026-05-09 13:19 38.53548 -7.88951 814 ft 26 kts
2026-05-09 13:19 38.53749 -7.88932 813 ft 31 kts
2026-05-09 13:19 38.53910 -7.88934 813 ft 13 kts 336°
2026-05-09 13:20 38.53907 -7.88917 813 ft 0 kts 182°
2026-05-09 13:21 38.53848 -7.88923 813 ft 31 kts 184°
2026-05-09 13:22 38.53546 -7.88937 936 ft 47 kts 195°
2026-05-09 13:22 38.53216 -7.88960 1125 ft 51 kts 189°
2026-05-09 13:22 38.52779 -7.88938 1188 ft 71 kts 184°
2026-05-09 13:23 38.52832 -7.86680 1836 ft 109 kts 349°
2026-05-09 13:23 38.53584 -7.86775 1837 ft 110 kts 340°
2026-05-09 13:24 38.54346 -7.86907 1846 ft 114 kts 341°
2026-05-09 13:24 38.55147 -7.86946 1868 ft 116 kts 348°
2026-05-09 13:24 38.55946 -7.86948 1863 ft 114 kts 350°
2026-05-09 13:24 38.56719 -7.86623 1889 ft 119 kts 23°
2026-05-09 13:25 38.57452 -7.86133 1851 ft 120 kts 25°
2026-05-09 13:25 38.58194 -7.85593 1796 ft 124 kts 25°
2026-05-09 13:25 38.59362 -7.84052 1649 ft 127 kts 77°
2026-05-09 13:26 38.59649 -7.83011 1639 ft 122 kts 69°
2026-05-09 13:26 38.60234 -7.82423 1815 ft 106 kts 349°
2026-05-09 13:26 38.60851 -7.82689 1815 ft 97 kts 301°
2026-05-09 13:26 38.61296 -7.83324 1989 ft 87 kts 289°
2026-05-09 13:27 38.61631 -7.83972 2117 ft 90 kts 284°
2026-05-09 13:27 38.62031 -7.84619 2236 ft 93 kts 288°
2026-05-09 13:27 38.62456 -7.85229 2402 ft 92 kts 294°
2026-05-09 13:27 38.62942 -7.85803 2532 ft 95 kts 296°
2026-05-09 13:28 38.63352 -7.86427 2688 ft 88 kts 284°
2026-05-09 13:28 38.63722 -7.87087 2649 ft 93 kts 286°
2026-05-09 13:28 38.64188 -7.87722 2590 ft 98 kts 295°
2026-05-09 13:28 38.64670 -7.88370 2465 ft 105 kts 299°
2026-05-09 13:29 38.65210 -7.89053 2276 ft 109 kts 294°
2026-05-09 13:29 38.65706 -7.89770 2194 ft 106 kts 302°
2026-05-09 13:29 38.66255 -7.90312 2249 ft 94 kts 299°
2026-05-09 13:29 38.66749 -7.90839 2291 ft 93 kts 301°
2026-05-09 13:30 38.67235 -7.91386 2297 ft 93 kts 296°
2026-05-09 13:30 38.67700 -7.91957 2310 ft 92 kts 293°
2026-05-09 13:30 38.68189 -7.92530 2325 ft 97 kts 302°
2026-05-09 13:30 38.68712 -7.93085 2347 ft 97 kts 300°
2026-05-09 13:31 38.69228 -7.93616 2394 ft 94 kts 301°
2026-05-09 13:31 38.69686 -7.94192 2413 ft 92 kts 294°
2026-05-09 13:31 38.70089 -7.94839 2454 ft 93 kts 289°
2026-05-09 13:31 38.70458 -7.95505 2492 ft 98 kts 298°
2026-05-09 13:32 38.70967 -7.96117 2422 ft 102 kts 295°
2026-05-09 13:32 38.71807 -7.97484 2129 ft 97 kts 291°
2026-05-09 13:32 38.72509 -7.97821 2014 ft 120 kts 349°
2026-05-09 13:33 38.73333 -7.97825 1944 ft 116 kts 346°
2026-05-09 13:33 38.74148 -7.97819 1952 ft 118 kts 351°
2026-05-09 13:33 38.74928 -7.97900 2112 ft 108 kts 345°
2026-05-09 13:33 38.75675 -7.97997 2143 ft 112 kts 345°
2026-05-09 13:34 38.76478 -7.98051 2139 ft 118 kts 350°
2026-05-09 13:34 38.77333 -7.98058 2108 ft 126 kts 351°
2026-05-09 13:34 38.78207 -7.98060 2133 ft 124 kts 353°
2026-05-09 13:34 38.79054 -7.98033 2173 ft 120 kts 352°
2026-05-09 13:35 38.79862 -7.98021 2276 ft 112 kts 345°
2026-05-09 13:35 38.80651 -7.98082 2291 ft 116 kts 348°
2026-05-09 13:35 38.81435 -7.98053 2363 ft 111 kts 344°
2026-05-09 13:35 38.82135 -7.98225 2615 ft 82 kts 320°
2026-05-09 13:36 38.82688 -7.98476 2699 ft 99 kts 327°
2026-05-09 13:36 38.83322 -7.98673 2957 ft 85 kts 316°
2026-05-09 13:36 38.83845 -7.99104 2952 ft 99 kts 305°
2026-05-09 13:36 38.84483 -7.99463 3092 ft 113 kts 336°
2026-05-09 13:37 38.85246 -7.99659 3235 ft 111 kts 336°
2026-05-09 13:37 38.86054 -7.99750 3317 ft 117 kts 346°
2026-05-09 13:37 38.86901 -7.99845 3269 ft 125 kts 341°
2026-05-09 13:37 38.87746 -7.99902 3381 ft 123 kts
2026-05-09 13:38 38.88555 -7.99695 3472 ft 115 kts 353°
2026-05-09 13:38 38.89356 -7.99623 3522 ft 116 kts 351°
2026-05-09 13:38 38.90173 -7.99597 3530 ft 120 kts 351°
2026-05-09 13:38 38.91008 -7.99599 3469 ft 116 kts 347°
2026-05-09 13:39 38.91778 -7.99589 3363 ft 108 kts 347°
2026-05-09 13:39 38.92531 -7.99591 3218 ft 110 kts 346°
2026-05-09 13:39 38.93299 -7.99581 3120 ft 110 kts 355°
2026-05-09 13:39 38.94053 -7.99398 3030 ft 109 kts
2026-05-09 13:40 38.94794 -7.99136 2891 ft 117 kts 10°
2026-05-09 13:40 38.95544 -7.98612 2723 ft 124 kts 29°
2026-05-09 13:40 38.96285 -7.98155 2655 ft 116 kts 14°
2026-05-09 13:40 38.97076 -7.97862 2502 ft 118 kts 13°
2026-05-09 13:41 38.97836 -7.97580 2433 ft 110 kts
2026-05-09 13:41 38.98553 -7.97440 2364 ft 104 kts 344°
2026-05-09 13:41 38.99283 -7.97451 2311 ft 105 kts 351°
2026-05-09 13:41 39.00010 -7.97393 2320 ft 100 kts 351°
2026-05-09 13:42 39.00727 -7.97325 2356 ft 106 kts 354°
2026-05-09 13:42 39.01485 -7.97237 2332 ft 114 kts 354°
2026-05-09 13:42 39.02198 -7.97360 2419 ft 99 kts 331°
2026-05-09 13:42 39.02908 -7.97486 2459 ft 105 kts 343°
2026-05-09 13:43 39.03628 -7.97569 2496 ft 104 kts 335°
2026-05-09 13:43 39.04377 -7.97661 2461 ft 111 kts 345°
2026-05-09 13:43 39.05149 -7.97667 2478 ft 113 kts 350°
2026-05-09 13:43 39.05950 -7.97674 2423 ft 118 kts 348°
2026-05-09 13:44 39.06737 -7.97665 2466 ft 110 kts 346°
2026-05-09 13:44 39.07504 -7.97698 2408 ft 113 kts 344°
2026-05-09 13:44 39.08281 -7.97732 2378 ft 113 kts 344°
2026-05-09 13:44 39.09078 -7.97832 2350 ft 112 kts 343°
2026-05-09 13:45 39.09822 -7.97899 2395 ft 103 kts 337°
2026-05-09 13:45 39.10533 -7.98069 2346 ft 109 kts 337°
2026-05-09 13:45 39.11285 -7.98205 2354 ft 105 kts 338°
2026-05-09 13:45 39.11982 -7.98348 2398 ft 95 kts 333°
2026-05-09 13:46 39.12602 -7.98489 2432 ft 88 kts 325°
2026-05-09 13:46 39.13233 -7.98693 2342 ft 101 kts 334°
2026-05-09 13:46 39.13954 -7.98821 2350 ft 104 kts 336°
2026-05-09 13:46 39.14663 -7.98991 2487 ft 99 kts 330°
2026-05-09 13:47 39.15304 -7.99283 2541 ft 99 kts 317°
2026-05-09 13:47 39.15897 -7.99669 2682 ft 93 kts 315°
2026-05-09 13:47 39.16502 -8.00039 2718 ft 96 kts 319°
2026-05-09 13:47 39.17046 -8.00380 2689 ft 81 kts 312°
2026-05-09 13:48 39.17532 -8.00761 2555 ft 80 kts 308°
2026-05-09 13:48 39.17841 -8.01029 2486 ft 81 kts 304°
2026-05-09 13:48 39.18315 -8.01443 2438 ft 88 kts 306°
2026-05-09 13:48 39.18836 -8.01908 2413 ft 93 kts 309°
2026-05-09 13:49 39.19361 -8.02389 2361 ft 92 kts 308°
2026-05-09 13:49 39.20020 -8.03063 2275 ft 91 kts 298°
2026-05-09 13:49 39.20281 -8.03472 2224 ft 84 kts 285°
2026-05-09 13:49 39.20536 -8.04122 2183 ft 79 kts 277°
2026-05-09 13:50 39.20743 -8.04767 2080 ft 76 kts 268°
2026-05-09 13:50 39.20847 -8.05387 2053 ft 69 kts 262°
2026-05-09 13:50 39.20917 -8.05962 2088 ft 73 kts 280°
2026-05-09 13:50 39.21263 -8.06546 2123 ft 89 kts 297°
2026-05-09 13:51 39.21604 -8.07159 2220 ft 80 kts 282°
2026-05-09 13:51 39.21862 -8.07812 2230 ft 92 kts 288°
2026-05-09 13:51 39.22222 -8.08442 2287 ft 89 kts 294°
2026-05-09 13:51 39.22661 -8.08996 2349 ft 85 kts 295°
2026-05-09 13:52 39.23076 -8.09506 2394 ft 79 kts 290°
2026-05-09 13:52 39.23258 -8.09970 2523 ft 47 kts 242°
2026-05-09 13:52 39.23057 -8.10229 2665 ft 44 kts 197°
2026-05-09 13:52 39.22690 -8.10089 2583 ft 67 kts 167°
2026-05-09 13:53 39.22310 -8.09637 2464 ft 78 kts 149°
2026-05-09 13:53 39.22008 -8.09013 2252 ft 82 kts 144°
2026-05-09 13:53 39.21665 -8.08420 2038 ft 88 kts 135°
2026-05-09 13:53 39.21665 -8.07516 1797 ft 118 kts 74°
2026-05-09 13:54 39.22256 -8.06818 1628 ft 115 kts 14°
2026-05-09 13:54 39.22937 -8.06390 1512 ft 106 kts 20°
2026-05-09 13:54 39.23603 -8.06041 1344 ft 103 kts 20°
2026-05-09 13:54 39.24083 -8.05488 1261 ft 88 kts 86°
2026-05-09 13:55 39.23996 -8.04793 1138 ft 80 kts 124°
2026-05-09 13:55 39.23644 -8.04388 1031 ft 65 kts 180°
2026-05-09 13:55 39.23297 -8.04537 914 ft 53 kts 212°
2026-05-09 13:55 39.22972 -8.04752 754 ft 52 kts 200°
2026-05-09 13:56 39.22669 -8.04907 623 ft 41 kts 199°
2026-05-09 13:56 39.22377 -8.05069 532 ft 50 kts 205°
2026-05-09 13:56 39.22034 -8.05268 429 ft 60 kts 205°
2026-05-09 13:56 39.21693 -8.05466 384 ft 45 kts 204°
2026-05-09 13:57 39.21503 -8.05575 381 ft 20 kts 203°
2026-05-09 13:57 39.21399 -8.05593 382 ft 15 kts 123°
2026-05-09 13:57 39.21360 -8.05476 385 ft 11 kts 119°
2026-05-09 13:57 39.21302 -8.05470 386 ft 9 kts 205°